Wind_Speed
12 15 18 16 12 12 6 9 10 9 8 8 10 16 16 12 25 24 21 17 14 12 10 10 9 9 9 9 7 7 8 7 8 9 10 10 13 8 9 12 14 8 5 7 6 7 5
14 16 15 11 11 11 10 11 10 9 8 8 10 12 16 15 13 25 22 20 15 12 13 11 9 8 7 8 9 9 10 10 12 12 11 14 16 13 8 10 9 4 4 5 10 9 11
14 14 10 10 13 11 11 11 11 10 8 7 8 14 17 19 19 16 22 17 19 16 15 13 14 12 10 9 10 11 14 18 15 13 15 18 18 13 10 11 7 9 8 8 7 15 5
12 9 8 11 12 13 14 14 13 12 10 8 7 6 11 10 10 10 14 23 15 15 13 12 12 13 15 15 16 18 21 21 15 16 16 15 16 9 8 4 9 11 10 13 9 6 7
9 8 7 9 11 13 15 16 17 16 13 11 9 4 9 9 7 8 13 15 15 11 12 14 15 16 17 20 20 22 24 22 17 14 13 13 14 12 7 6 15 20 13 9 15 8 7
6 7 6 8 10 12 15 17 17 18 15 13 11 6 6 9 9 4 8 12 13 13 19 20 19 19 18 20 20 23 25 20 15 9 14 16 17 13 5 10 17 16 5 8 10 14 14
6 6 5 7 8 11 13 17 18 19 16 14 12 10 7 9 8 7 7 7 9 13 16 18 19 17 15 12 15 17 16 12 11 7 10 11 18 19 4 7 14 3 9 7 13 14 5
6 7 5 6 7 9 11 15 17 17 17 15 14 14 13 10 6 7 8 8 9 8 6 6 9 11 11 10 13 15 14 11 12 6 9 14 16 12 16 5 9 7 13 8 11 9 8
6 8 4 4 5 7 10 13 15 15 16 13 15 16 16 14 13 12 11 13 13 12 14 5 1 5 6 7 12 9 11 8 6 5 13 14 3 19 13 8 10 8 14 12 9 5 5
5 8 6 3 4 6 8 11 12 12 13 12 12 13 14 18 18 21 18 17 15 17 22 21 16 11 5 7 12 8 8 8 3 4 17 9 21 14 5 18 12 7 15 2 7 7 7
6 7 7 5 4 6 8 10 9 9 10 12 12 14 17 16 20 24 23 27 29 29 37 34 36 39 19 6 3 3 8 5 3 1 9 9 11 12 11 16 22 14 13 17 18 16 7
9 7 6 7 7 7 7 8 7 7 7 9 11 13 15 20 22 23 21 25 26 28 33 31 29 31 33 29 18 4 6 8 7 13 11 13 12 7 8 15 23 15 27 30 16 13 2
11 11 10 11 11 11 11 11 9 6 5 7 9 9 11 12 15 19 22 27 22 26 29 22 22 21 29 30 28 30 24 16 15 13 11 11 10 10 17 11 18 25 26 30 13 3 10
6 6 7 7 8 9 11 12 12 9 6 6 7 7 12 14 17 18 19 21 22 18 13 17 14 19 17 27 23 27 25 22 18 14 12 14 14 19 20 14 20 22 23 23 26 15 15
3 2 3 4 6 7 8 9 10 10 10 8 7 6 9 12 10 10 11 16 16 13 7 10 10 21 11 17 21 17 19 18 16 15 12 14 14 19 15 12 16 24 26 26 28 24 22
3 2 1 2 3 4 6 6 7 8 9 8 7 5 5 7 7 8 8 10 14 14 8 3 9 14 5 11 15 14 14 13 11 17 13 8 13 10 5 7 15 21 25 25 22 25 26
5 5 3 2 1 1 2 4 4 5 6 6 5 3 2 1 6 6 3 1 4 8 6 3 13 13 7 7 6 3 8 5 7 13 17 12 8 8 4 5 9 13 15 19 21 17 21
9 8 8 6 5 3 5 6 7 7 8 7 5 4 5 4 5 8 9 7 5 10 4 9 12 15 18 14 11 9 6 7 4 6 9 5 6 10 9 5 2 8 10 12 15 16 15
13 13 12 11 11 10 10 11 12 13 12 13 11 9 8 8 11 13 11 12 13 14 5 7 6 9 9 17 14 17 15 12 11 7 6 4 4 12 12 5 4 4 8 6 11 17 15
17 18 18 17 17 16 16 15 14 15 15 15 14 13 13 16 14 15 16 13 13 15 12 10 9 10 13 12 9 10 15 19 14 14 15 5 2 8 21 15 12 6 7 4 9 10 16
21 21 22 21 19 19 19 19 19 18 17 17 18 20 18 17 20 19 19 18 15 16 14 13 14 10 13 11 11 9 7 14 15 16 17 7 10 7 27 22 15 11 4 4 8 12 16
25 25 25 24 23 23 23 22 21 21 19 20 18 19 22 23 22 22 20 17 12 14 18 18 18 19 20 16 10 10 8 7 18 18 19 21 20 15 11 25 28 24 16 8 9 18 14
28 29 30 29 28 26 25 25 26 23 21 20 20 20 22 21 21 20 15 16 17 18 23 24 24 23 24 25 23 15 12 15 14 16 21 23 26 26 13 18 21 32 22 12 11 16 10
29 31 31 32 33 32 30 29 26 23 24 22 20 19 21 21 19 15 16 16 18 20 21 27 20 22 24 25 25 25 23 18 20 21 23 24 26 29 23 21 22 9 27 19 21 18 16
32 31 30 31 32 33 31 28 27 25 24 25 22 21 22 20 21 20 19 19 22 23 23 25 24 26 26 26 27 27 27 29 23 23 26 28 28 32 33 26 22 12 18 20 15 12 10
34 35 34 33 32 33 33 31 30 29 27 27 28 26 26 25 23 24 24 22 20 21 24 24 25 30 30 30 31 31 30 30 29 25 27 31 34 35 32 35 30 19 31 29 24 11 20
35 35 37 35 34 35 35 34 32 32 30 29 30 29 29 29 26 24 23 24 22 22 23 26 27 32 29 31 31 32 30 29 28 25 25 33 34 37 38 37 35 26 32 31 29 30 22
39 37 37 38 37 35 36 36 34 33 34 31 30 32 31 33 32 27 26 27 27 26 26 26 29 29 32 34 32 33 33 32 33 28 29 32 35 38 39 40 41 33 31 42 39 36 30
45 42 40 38 38 37 37 39 38 36 36 36 32 32 32 34 36 32 30 29 29 30 30 28 31 31 33 33 34 35 35 36 36 36 35 39 39 39 41 42 41 41 37 43 47 40 37
Wind_Direction
348 343 342 346 1 8 16 348 339 325 313 304 261 242 233 237 223 220 219 221 220 215 217 217 208 212 219 232 228 234 237 238 251 253 258 293 301 318 310 333 6 359 356 173 185 224 285
343 345 350 11 2 1 359 354 346 335 310 282 261 244 235 233 241 225 224 216 216 214 222 221 216 211 214 234 225 225 238 243 247 254 290 292 297 298 339 322 329 302 203 219 220 198 240
340 350 11 11 6 24 30 16 11 2 340 319 288 245 233 236 239 236 227 218 212 207 234 238 234 235 239 259 246 248 255 252 270 287 286 281 281 308 306 332 310 257 252 172 232 175 191
345 0 23 26 47 50 39 30 23 18 8 356 332 273 219 213 208 219 214 214 202 207 215 241 262 269 264 251 254 255 259 263 269 277 277 283 281 277 280 310 316 310 268 205 195 105 79
350 6 47 53 59 50 43 36 30 24 21 19 23 33 186 187 158 198 206 195 208 215 229 247 260 270 264 254 238 247 251 260 260 278 269 267 268 266 253 296 298 286 293 193 174 160 145
6 17 69 79 67 57 46 37 30 26 24 28 37 69 154 175 176 126 149 174 198 226 245 251 253 256 248 247 244 238 247 252 251 244 247 257 266 266 271 302 332 336 170 171 181 177 173
14 35 83 91 75 58 46 35 27 24 29 37 47 65 117 154 174 189 177 180 206 228 243 252 249 235 229 243 235 240 239 236 244 264 290 279 265 255 271 335 348 191 221 146 148 177 162
22 41 87 99 77 57 46 33 26 25 29 45 57 71 83 99 147 212 224 217 193 171 180 212 238 227 223 232 235 222 234 222 227 260 293 299 303 250 194 266 272 66 103 121 132 135 137
31 36 74 97 66 43 36 29 25 28 31 46 61 71 71 79 86 89 98 111 110 89 61 46 157 248 233 223 237 229 246 241 254 308 315 316 93 113 163 163 108 84 107 135 163 146 107
41 39 49 75 42 20 21 23 26 31 40 42 64 68 76 82 85 88 94 94 95 77 72 59 46 11 323 238 230 235 246 249 263 341 35 88 100 158 224 336 45 83 38 113 102 96 88
39 39 42 41 15 4 3 17 34 40 51 56 69 82 91 97 93 86 83 80 85 72 64 58 46 36 24 42 223 211 273 278 234 171 139 86 75 102 13 4 350 43 32 49 17 351 205
44 40 31 29 26 24 17 26 51 54 52 65 76 108 105 93 90 93 91 75 71 67 54 48 50 37 45 60 61 121 127 88 91 116 125 164 107 71 1 348 27 32 26 5 356 358 223
52 54 52 49 50 47 41 44 52 61 60 62 82 97 104 107 115 89 82 76 72 54 39 35 32 36 27 41 68 66 68 82 90 82 114 126 78 26 8 357 31 39 31 14 19 184 139
45 47 43 47 50 50 52 58 59 60 61 65 80 89 102 125 112 93 100 91 87 86 57 38 37 31 23 30 61 61 59 62 81 79 84 86 61 50 38 27 28 23 27 18 5 333 201
352 20 56 44 58 60 61 63 63 67 62 58 62 71 106 135 123 119 101 98 95 106 67 25 31 33 37 29 33 42 52 44 35 28 71 83 69 70 61 45 33 37 30 20 7 15 162
276 280 101 105 80 67 61 56 66 59 60 61 59 59 89 138 152 120 129 112 100 116 112 47 141 90 51 80 33 45 35 18 1 19 27 82 92 88 69 29 18 30 28 22 18 26 17
258 258 264 252 208 97 15 25 22 32 37 47 37 30 51 132 164 166 184 258 107 103 88 233 168 143 168 98 104 76 15 12 354 349 346 346 171 157 99 351 1 11 7 4 358 14 18
262 248 255 261 253 261 292 308 312 312 317 321 328 345 326 287 248 258 264 313 325 292 188 188 215 197 189 192 158 180 174 137 228 267 293 314 208 195 139 232 335 6 346 336 340 340 20
271 262 257 256 256 265 279 296 306 307 303 301 306 307 289 258 270 282 310 297 284 301 320 272 267 257 253 223 212 193 192 223 255 274 285 288 255 178 181 227 228 56 331 340 316 332 344
271 270 266 265 265 267 273 286 294 301 302 299 295 287 280 285 275 264 271 270 282 292 296 298 294 295 280 285 290 257 222 217 236 272 281 254 189 178 183 184 175 163 313 307 314 328 315
279 276 274 272 270 273 280 285 289 296 297 291 290 288 285 277 274 278 281 282 276 289 295 302 303 284 273 269 285 324 297 259 275 265 273 260 297 218 193 204 200 184 188 296 324 300 313
278 275 273 274 276 281 285 288 290 295 294 293 288 285 287 285 287 287 289 290 285 268 272 276 271 279 281 278 250 272 275 274 279 280 287 283 279 279 306 217 217 206 211 234 306 296 298
274 274 274 276 277 280 282 286 293 293 290 289 289 285 280 279 281 286 290 286 278 266 269 263 266 267 277 286 296 286 265 266 255 239 250 268 271 272 263 272 249 227 213 231 254 262 281
277 276 275 274 276 279 280 282 283 283 285 284 284 277 278 281 281 285 282 274 274 273 270 274 274 269 272 273 275 274 276 252 242 248 254 255 262 265 267 259 265 269 219 225 251 242 263
279 277 276 275 275 277 278 279 282 280 282 284 284 278 274 274 277 277 277 278 281 282 280 279 279 278 273 269 266 267 271 276 268 250 254 259 254 262 265 266 258 215 206 232 239 250 308
282 281 280 279 277 277 276 276 276 276 277 276 276 269 272 270 270 277 284 281 280 284 285 286 280 277 280 279 276 274 270 269 263 260 257 255 259 260 260 262 260 219 208 223 229 244 239
281 282 280 280 280 279 279 277 276 276 273 274 275 274 271 273 271 274 278 281 283 283 281 281 280 284 283 282 280 281 279 275 269 263 249 256 257 258 259 255 258 249 224 222 232 231 239
281 281 283 283 281 280 279 279 277 273 272 271 275 277 276 273 271 269 274 278 277 276 278 279 276 275 281 284 282 280 279 277 274 268 258 252 251 252 255 259 260 255 247 223 230 243 232
276 278 278 279 282 282 280 278 277 275 270 270 272 274 273 270 272 273 277 275 276 279 279 277 278 278 277 277 279 277 278 277 277 273 266 261 257 254 254 258 261 258 243 235 232 234 246
Height
5910 5908 5905 5901 5899 5896 5895 5894 5892 5890 5888 5887 5886 5887 5888 5890 5892 5895 5898 5902 5904 5906 5908 5910 5912 5914 5915 5915 5916 5915 5915 5914 5913 5912 5911 5910 5908 5908 5908 5907 5905 5902 5898 5898 5900 5900 5901
5909 5906 5903 5901 5898 5896 5894 5892 5890 5887 5885 5884 5884 5884 5885 5887 5888 5891 5895 5899 5902 5904 5906 5908 5910 5912 5913 5913 5913 5913 5912 5911 5910 5911 5913 5911 5908 5906 5906 5905 5904 5902 5898 5898 5897 5900 5900
5907 5904 5902 5900 5898 5896 5894 5891 5889 5886 5883 5881 5880 5880 5881 5883 5885 5888 5891 5896 5899 5902 5904 5907 5909 5910 5911 5912 5911 5910 5908 5906 5911 5913 5912 5910 5906 5909 5905 5904 5903 5900 5898 5894 5895 5891 5901
5906 5904 5902 5900 5899 5897 5895 5892 5889 5885 5882 5880 5877 5876 5877 5880 5883 5885 5888 5892 5896 5899 5902 5904 5906 5908 5907 5908 5908 5906 5904 5906 5910 5910 5909 5907 5906 5906 5906 5905 5904 5900 5897 5898 5896 5896 5897
5905 5903 5902 5901 5900 5898 5896 5893 5890 5886 5883 5879 5877 5875 5876 5879 5882 5883 5886 5889 5894 5897 5900 5902 5903 5903 5904 5903 5903 5901 5899 5904 5907 5908 5907 5905 5902 5904 5905 5907 5903 5899 5897 5895 5896 5898 5897
5904 5903 5903 5902 5901 5899 5897 5895 5891 5888 5884 5881 5878 5877 5877 5880 5882 5884 5885 5888 5892 5896 5898 5899 5899 5901 5900 5899 5899 5897 5896 5901 5905 5906 5904 5903 5901 5903 5907 5905 5903 5896 5896 5897 5896 5895 5895
5904 5903 5903 5902 5902 5901 5899 5896 5893 5890 5886 5883 5881 5880 5879 5881 5883 5884 5886 5888 5892 5895 5895 5897 5896 5895 5895 5896 5895 5893 5895 5899 5901 5902 5902 5901 5901 5898 5905 5906 5903 5895 5897 5895 5893 5896 5898
5905 5904 5903 5903 5903 5902 5900 5898 5895 5892 5889 5886 5884 5883 5882 5882 5883 5883 5885 5887 5889 5891 5892 5893 5893 5893 5892 5893 5893 5891 5893 5898 5898 5901 5901 5901 5898 5892 5901 5903 5901 5893 5892 5895 5895 5894 5897
5905 5904 5904 5904 5903 5903 5902 5900 5898 5895 5892 5890 5889 5887 5886 5885 5884 5885 5886 5888 5890 5892 5892 5893 5892 5892 5891 5891 5891 5890 5891 5894 5896 5899 5900 5902 5898 5893 5894 5898 5899 5895 5896 5895 5897 5896 5896
5907 5906 5905 5904 5904 5904 5903 5902 5900 5898 5895 5894 5893 5891 5890 5888 5889 5887 5888 5890 5893 5893 5892 5894 5892 5891 5890 5889 5889 5890 5891 5894 5897 5900 5900 5898 5899 5900 5900 5898 5895 5898 5899 5899 5899 5898 5897
5908 5908 5907 5906 5905 5905 5903 5902 5901 5900 5898 5896 5895 5895 5893 5893 5892 5891 5893 5894 5894 5895 5893 5894 5894 5891 5888 5889 5890 5889 5888 5893 5897 5900 5903 5906 5903 5902 5901 5900 5895 5899 5899 5901 5902 5900 5897
5910 5909 5908 5907 5906 5905 5904 5903 5902 5901 5900 5899 5899 5898 5898 5897 5896 5897 5897 5896 5895 5896 5896 5898 5897 5899 5896 5893 5894 5894 5893 5894 5898 5899 5902 5903 5904 5904 5900 5904 5901 5900 5896 5896 5899 5901 5900
5912 5911 5910 5909 5908 5906 5905 5904 5904 5903 5902 5902 5901 5901 5900 5900 5901 5899 5898 5898 5901 5897 5899 5902 5903 5903 5901 5902 5900 5898 5897 5897 5901 5903 5904 5904 5905 5903 5902 5906 5905 5901 5899 5898 5899 5902 5903
5914 5913 5912 5911 5910 5909 5908 5906 5905 5905 5904 5904 5903 5903 5903 5902 5902 5902 5902 5902 5901 5901 5901 5903 5904 5904 5905 5905 5904 5902 5902 5903 5904 5905 5906 5905 5905 5905 5906 5904 5904 5906 5908 5906 5902 5903 5903
5914 5914 5913 5912 5912 5911 5910 5909 5908 5907 5906 5906 5906 5905 5905 5905 5905 5904 5904 5902 5902 5903 5904 5904 5902 5902 5904 5906 5906 5905 5905 5905 5905 5906 5907 5908 5906 5906 5907 5909 5910 5910 5909 5908 5905 5894 5897
5914 5913 5913 5913 5912 5911 5911 5910 5910 5909 5908 5908 5907 5907 5906 5905 5905 5905 5904 5902 5900 5899 5901 5905 5906 5904 5904 5905 5906 5907 5906 5906 5906 5907 5908 5908 5907 5908 5910 5910 5911 5911 5910 5911 5909 5906 5900
5913 5913 5912 5912 5912 5912 5911 5911 5910 5910 5909 5909 5908 5907 5907 5907 5906 5906 5904 5902 5900 5898 5898 5902 5904 5903 5901 5902 5903 5907 5908 5905 5906 5907 5906 5906 5909 5910 5910 5908 5909 5911 5911 5912 5911 5911 5909
5912 5911 5911 5911 5911 5911 5911 5910 5910 5909 5908 5908 5908 5907 5906 5905 5906 5904 5902 5901 5901 5900 5897 5897 5900 5901 5900 5901 5902 5904 5905 5902 5905 5907 5907 5906 5906 5908 5910 5907 5908 5909 5910 5912 5911 5910 5910
5910 5910 5909 5909 5909 5909 5908 5908 5908 5907 5907 5905 5905 5905 5905 5904 5902 5901 5901 5901 5900 5899 5898 5897 5899 5899 5898 5898 5900 5901 5902 5902 5902 5902 5903 5904 5904 5905 5908 5909 5905 5907 5907 5910 5911 5908 5910
5906 5906 5906 5906 5905 5905 5905 5905 5904 5904 5903 5903 5902 5902 5900 5898 5898 5896 5895 5896 5895 5897 5897 5896 5897 5899 5899 5897 5898 5900 5901 5900 5899 5900 5899 5900 5902 5905 5905 5905 5904 5906 5907 5908 5909 5909 5907
5902 5902 5901 5901 5901 5901 5901 5900 5900 5899 5898 5898 5897 5895 5895 5893 5891 5892 5893 5893 5896 5895 5894 5894 5893 5894 5894 5896 5897 5898 5900 5900 5899 5898 5897 5898 5899 5901 5900 5902 5903 5903 5903 5903 5906 5907 5907
5898 5897 5896 5896 5896 5896 5896 5895 5895 5894 5893 5892 5891 5890 5887 5886 5886 5886 5888 5889 5891 5891 5889 5887 5888 5887 5886 5889 5894 5894 5896 5897 5897 5898 5897 5895 5895 5897 5901 5898 5896 5899 5902 5900 5901 5901 5903
5891 5891 5891 5890 5890 5890 5890 5890 5889 5889 5888 5886 5886 5884 5882 5881 5880 5880 5883 5882 5883 5883 5882 5881 5882 5883 5884 5883 5884 5889 5890 5891 5893 5893 5892 5891 5890 5891 5894 5895 5895 5896 5899 5898 5899 5899 5898
5885 5884 5884 5883 5883 5883 5883 5883 5883 5883 5882 5881 5880 5879 5877 5875 5876 5877 5876 5876 5876 5875 5875 5872 5878 5879 5880 5878 5878 5876 5877 5881 5882 5884 5884 5885 5884 5883 5886 5889 5891 5895 5893 5891 5891 5894 5895
5878 5877 5876 5876 5875 5873 5874 5874 5874 5874 5874 5873 5874 5873 5872 5872 5871 5871 5870 5870 5868 5868 5868 5868 5869 5868 5868 5869 5869 5870 5871 5871 5874 5877 5876 5874 5877 5875 5875 5880 5884 5888 5891 5889 5887 5890 5891
5870 5869 5868 5868 5867 5865 5864 5865 5866 5866 5867 5866 5864 5864 5864 5865 5866 5863 5862 5862 5863 5862 5861 5862 5861 5857 5859 5860 5861 5861 5864 5864 5865 5868 5868 5867 5866 5867 5871 5869 5873 5879 5875 5877 5879 5882 5876
5860 5860 5859 5858 5858 5857 5855 5855 5855 5856 5858 5858 5856 5857 5856 5855 5856 5856 5856 5855 5855 5854 5854 5853 5851 5848 5852 5850 5850 5851 5853 5854 5856 5859 5862 5857 5857 5856 5858 5859 5862 5869 5869 5871 5871 5874 5873
5849 5849 5849 5849 5849 5849 5847 5844 5845 5846 5845 5848 5848 5848 5848 5846 5845 5848 5848 5847 5845 5845 5845 5845 5844 5844 5841 5839 5841 5841 5841 5843 5844 5849 5849 5849 5849 5848 5849 5850 5851 5855 5860 5861 5859 5858 5865
5837 5837 5837 5837 5837 5838 5839 5836 5835 5836 5836 5836 5838 5838 5838 5837 5835 5837 5837 5835 5835 5834 5834 5835 5834 5833 5832 5832 5831 5830 5830 5831 5833 5835 5837 5836 5839 5840 5841 5839 5840 5843 5847 5847 5848 5850 5853